{"data":{"norad_id":58084,"intl_designator":"2023-160K","name":"STARLINK-30586","alt_names":[],"object_type":"PAYLOAD","status":"ACTIVE","operator":null,"country":"US","launch_date":"2023-10-18","launch_site_code":"AFETR","launch_vehicle":null,"mission":null,"orbit_class":"UNKNOWN","rcs_meters":null,"size_class":null,"mass_kg":null,"dimensions":null,"purposes":["comms"],"wikipedia_slug":null,"has_3d_model":false,"image_url":null,"decayed_at":null,"tle_current":{"epoch":"2026-09-20T22:05:05.301600Z","epoch_age_seconds":104183,"freshness":"FRESH","line1":"1 58084U 23160K   26263.92020025  .00000051  00000+0  11372-4 0  9999","line2":"2 58084  43.0015  58.7446 0000991 268.3656  91.7082 15.27578012162766","mean_motion":15.27578012,"eccentricity":9.91e-5,"inclination_deg":43.0015,"raan_deg":58.7446,"arg_perigee_deg":268.3656,"mean_anomaly_deg":91.7082,"bstar":1.1372e-5,"rev_number":16276,"period_min":94.266871393014,"perigee_km":482.37510470125,"apogee_km":483.73499296533,"semimajor_km":6861.1920488333,"source":"CELESTRAK","updated_at":"2026-09-21T09:00:33.783191Z"}}}